Tracking 23611 objects as of 17-Sep-2021
HD Live streaming from Space Station
objects crossing your sky now
Track INSPIRATION-4

DMSP 5D-2 F13 DEB

Track DMSP 5D-2 F13 DEB now!
10-day predictions


NORAD ID: 40447
Int'l Code: 1995-015AZ
Perigee: 818.1 km
Apogee: 838.0 km
Inclination: 98.7 °
Period: 101.3 minutes
Semi major axis: 7199 km
RCS: Unknown
Launch date: March 24, 1995
Source: United States (US)
Launch site: AIR FORCE WESTERN TEST RANGE (AFWTR)

Note: This is SATELLITE DEBRIS
aabbcc
Your satellite tracking list
Your tracking list is empty




NASA's NSSDC Master Catalog

Two Line Element Set (TLE):
1 40447U 95015AZ  21260.29125792  .00000282  00000-0  14963-3 0  9995
2 40447  98.7496 274.5632 0013816 326.1608  33.8686 14.21319908339229
Source of the keplerian elements: AFSPC